CZ-6A DEB, 60802

Orbit data source: Space-Track

CZ-6A DEB, 60802 is space debris in LEO originally from a launch on Tue, 06 Aug 2024 UTC launched from the Taiyaun Space Center, China (TSC). Debris objects in space refer to the collection of defunct objects orbiting the Earth. Examples of debris include non-operational satellites, rocket bodies, and fragments generated from explosions, collisions, or faulty payload assembly.

Loading next visibility...
Identifier
60802, 2024-140GD
Orbit
LEO
Country
Flag of CNCN / PRC
Related business
Manufacturer
SAST
Mission
Spacecraft
Bus & Motor
Unknown
Mass
Unknown
Launch date (UTC)
2024-08-06 (2 years ago)
Launch vehicle
Unknown
Launch site
Taiyaun Space Center, China (TSC)
Object type
Payload
Rocket body
Debris
Shape & HBR
Unknown shape, 0.3 m
Radar Cross Section
Medium (>0.1 m² and <1 m²)

Expand to show TLE details & history
Last TLE update: 12 hours ago

TLE from 12 hours ago
0 CZ-6A DEB
1 60802U 24140GD  26171.33898524  .00000400  00000-0  79033-4 0  9996
2 60802  89.0398 272.8148 0128554 249.9978 108.7351 14.55368781 98482
Epoch: 2026-06-20T08:08Z
TLE epoch observation values (Epoch: 2026-06-20T08:08:08.324Z)
Latitude
-0.00012°
Longitude
-117.77492°
Altitude
741.581 km
Speed
7.468 km/s
True Right ascension
18h 11m 15s
True Declination
0° 00' 00"
Sunlit
Object was in full shadow at epoch
Visualization orbit readout
Latitude
Unknown
Longitude
Unknown
Altitude
Unknown
Speed
Unknown
Apparent Right ascension
Unknown
Apparent Declination
Unknown
Sunlit
N/A
Visualization observer readout
Local Sidereal Time
07:18:34
Azimuth
Unknown
Elevation
Unknown
Doppler factor
Unknown
Orbital elements
Apogee altitude
796.125 km
Perigee altitude
614.01 km
Semi-major axis
7,083.204 km
Eccentricity
0.01286
Inclination
89.0398°
RAAN
272.8148°
Arg. of periapsis
249.9978°
True anomaly
110.12286°
Mean anomaly
108.7351°
Eccentric anomaly
109.42971°
Mean motion
3.64081 °/min
Orbital period
98.88 mins
BSTAR
0.000079033
Loading maneuver chart data...
Computing Atmospheric mass density...
Loading historical data...
Loading historical data...
Loading historical data...
Loading historical data...
Loading historical data...
Loading historical data...
Loading historical data...

Documentation

Showing up to 5 results
|